HAZ1383 ZBAA-ZUUU

Flight info

Callsign HAZ1383
Flight time N/A
Altitude 36100
Route RUSDO6J RUSDO W45 VAGBI B215 GODON W43 SAVPA W276 ANRUG W279 ONEBA G212 SUBUL W230 AKDIK AKDIK2E
Aircraft A321/M-SDE3FGHIRWY/LB1

Departure

Time N/A
Airport Beijing Capital International Airport (ZBAA)

Arrival

Time 2026-04-29 12:45
Airport Chengdu Shuangliu International Airport (ZUUU)
Time Latitude Longitude Altitude Speed Heading
2026-04-29 10:23 39.63726 116.32897 14947 ft 411 kts 266°
2026-04-29 10:23 39.63482 116.29183 15478 ft 415 kts 266°
2026-04-29 10:24 39.63234 116.25441 16000 ft 418 kts 266°
2026-04-29 10:24 39.62981 116.21670 16547 ft 421 kts 266°
2026-04-29 10:24 39.62727 116.17870 17070 ft 425 kts 266°
2026-04-29 10:24 39.62469 116.14039 17589 ft 428 kts 266°
2026-04-29 10:25 39.62209 116.10175 18100 ft 432 kts 266°
2026-04-29 10:25 39.61946 116.06285 18577 ft 435 kts 266°
2026-04-29 10:25 39.61679 116.02365 19009 ft 438 kts 266°
2026-04-29 10:25 39.61410 115.98414 19440 ft 441 kts 266°
2026-04-29 10:26 39.61140 115.94489 19857 ft 445 kts 266°
2026-04-29 10:26 39.60863 115.90486 20325 ft 447 kts 266°
2026-04-29 10:26 39.60833 115.86444 20729 ft 449 kts 276°
2026-04-29 10:26 39.61298 115.82436 21146 ft 451 kts 285°
2026-04-29 10:27 39.63644 115.74930 21998 ft 452 kts 301°
2026-04-29 10:27 39.65145 115.71331 22409 ft 455 kts 301°
2026-04-29 10:27 39.66650 115.67702 22804 ft 458 kts 301°
2026-04-29 10:28 39.68138 115.64092 23220 ft 461 kts 301°
2026-04-29 10:28 39.69654 115.60406 23625 ft 464 kts 301°
2026-04-29 10:28 39.71179 115.56706 23971 ft 466 kts 301°
2026-04-29 10:28 39.72556 115.52878 24304 ft 472 kts 292°
2026-04-29 10:29 39.73414 115.48748 24647 ft 477 kts 282°
2026-04-29 10:29 39.73698 115.44434 24961 ft 482 kts 271°
2026-04-29 10:29 39.73385 115.40086 25244 ft 486 kts 260°
2026-04-29 10:29 39.72470 115.35854 25571 ft 490 kts 249°
2026-04-29 10:30 39.71011 115.31836 25853 ft 493 kts 242°
2026-04-29 10:30 39.69454 115.27923 26175 ft 496 kts 242°
2026-04-29 10:30 39.67863 115.23929 26482 ft 499 kts 242°
2026-04-29 10:30 39.66266 115.19920 26818 ft 501 kts 242°
2026-04-29 10:31 39.64663 115.15896 27155 ft 502 kts 242°
2026-04-29 10:31 39.63062 115.11875 27585 ft 501 kts 242°
2026-04-29 10:31 39.61462 115.07863 27985 ft 501 kts 242°
2026-04-29 10:31 39.59861 115.03854 28388 ft 501 kts 242°
2026-04-29 10:32 39.58256 114.99834 28747 ft 502 kts 243°
2026-04-29 10:32 39.56674 114.95875 29184 ft 501 kts 242°
2026-04-29 10:32 39.55069 114.91869 29605 ft 501 kts 242°
2026-04-29 10:32 39.53458 114.87866 30001 ft 501 kts 242°
2026-04-29 10:33 39.51847 114.83869 30375 ft 500 kts 242°
2026-04-29 10:33 39.50239 114.79881 30771 ft 498 kts 242°
2026-04-29 10:33 39.48640 114.75920 31191 ft 496 kts 242°
2026-04-29 10:33 39.47045 114.71975 31639 ft 493 kts 242°
2026-04-29 10:34 39.45457 114.68060 32110 ft 489 kts 242°
2026-04-29 10:34 39.43880 114.64175 32591 ft 485 kts 242°
2026-04-29 10:34 39.42342 114.60379 33079 ft 481 kts 242°
2026-04-29 10:34 39.40794 114.56562 33560 ft 477 kts 242°
2026-04-29 10:35 39.39255 114.52780 34035 ft 473 kts 242°
2026-04-29 10:35 39.37727 114.49027 34422 ft 470 kts 242°
2026-04-29 10:35 39.36210 114.45304 34770 ft 467 kts 242°
2026-04-29 10:35 39.34694 114.41592 35070 ft 466 kts 242°
2026-04-29 10:36 39.33179 114.37899 35351 ft 465 kts 243°
2026-04-29 10:36 39.31664 114.34211 35612 ft 465 kts 242°
2026-04-29 10:36 39.30153 114.30531 35904 ft 463 kts 242°
2026-04-29 10:36 39.28651 114.26868 36121 ft 462 kts 243°
2026-04-29 10:37 39.27171 114.23257 36174 ft 460 kts 242°
2026-04-29 10:37 39.23373 114.16667 36175 ft 460 kts 223°
2026-04-29 10:38 39.18019 114.12188 36172 ft 461 kts 203°
2026-04-29 10:38 39.11879 114.09813 36178 ft 461 kts 196°
2026-04-29 10:39 39.05740 114.07630 36172 ft 461 kts 196°
2026-04-29 10:39 38.99562 114.05427 36164 ft 462 kts 196°
2026-04-29 10:40 38.93370 114.03216 36168 ft 462 kts 196°
2026-04-29 10:40 38.87183 114.01020 36176 ft 461 kts 197°
2026-04-29 10:41 38.80990 113.98835 36180 ft 462 kts 197°
2026-04-29 10:41 38.74835 113.96673 36189 ft 461 kts 198°
2026-04-29 10:42 38.68650 113.94491 36187 ft 461 kts 197°
2026-04-29 10:42 38.62469 113.92311 36185 ft 460 kts 197°
2026-04-29 10:43 38.56295 113.90140 36179 ft 460 kts 197°
2026-04-29 10:43 38.50164 113.87991 36183 ft 460 kts 197°
2026-04-29 10:44 38.43991 113.85838 36184 ft 460 kts 197°
2026-04-29 10:44 38.38003 113.83107 36187 ft 455 kts 211°
2026-04-29 10:45 38.33122 113.78130 36182 ft 448 kts 232°
2026-04-29 10:45 38.29931 113.71391 36176 ft 446 kts 246°
2026-04-29 10:46 38.27275 113.64294 36171 ft 448 kts 246°
2026-04-29 10:46 38.24556 113.57151 36161 ft 449 kts 245°
2026-04-29 10:47 38.21832 113.50012 36176 ft 449 kts 245°
2026-04-29 10:47 38.19130 113.42918 36186 ft 448 kts 245°
2026-04-29 10:48 38.16412 113.35777 36189 ft 449 kts 245°
2026-04-29 10:48 38.13722 113.28614 36187 ft 450 kts 246°
2026-04-29 10:49 38.11053 113.21425 36186 ft 450 kts 246°
2026-04-29 10:49 38.08383 113.14252 36197 ft 449 kts 246°
2026-04-29 10:50 38.05729 113.07152 36205 ft 448 kts 246°
2026-04-29 10:50 38.03045 113.00010 36202 ft 449 kts 246°
2026-04-29 10:51 38.00349 112.92872 36204 ft 449 kts 246°
2026-04-29 10:51 37.97648 112.85730 36206 ft 449 kts 246°
2026-04-29 10:52 37.94969 112.78644 36207 ft 448 kts 246°
2026-04-29 10:52 37.92272 112.71532 36203 ft 448 kts 246°
2026-04-29 10:53 37.89572 112.64418 36200 ft 448 kts 246°
2026-04-29 10:53 37.86853 112.57321 36199 ft 448 kts 245°
2026-04-29 10:54 37.83969 112.50377 36201 ft 449 kts 243°
2026-04-29 10:54 37.80963 112.43445 36211 ft 449 kts 243°
2026-04-29 10:55 37.77975 112.36510 36211 ft 449 kts 244°
2026-04-29 10:55 37.75123 112.29503 36212 ft 448 kts 246°
2026-04-29 10:56 37.72483 112.22442 36215 ft 447 kts 247°
2026-04-29 10:56 37.69837 112.15328 36214 ft 447 kts 246°
2026-04-29 10:57 37.67137 112.08252 36193 ft 448 kts 246°
2026-04-29 10:57 37.64407 112.01194 36209 ft 447 kts 246°
2026-04-29 10:58 37.61698 111.94200 36213 ft 447 kts 246°
2026-04-29 10:58 37.58975 111.87163 36220 ft 447 kts 246°
2026-04-29 10:59 37.56250 111.80126 36211 ft 446 kts 246°
2026-04-29 10:59 37.53512 111.73093 36188 ft 448 kts 247°
2026-04-29 11:00 37.50686 111.66143 36186 ft 451 kts 241°
2026-04-29 11:00 37.47169 111.59581 36202 ft 452 kts 239°
2026-04-29 11:01 37.43648 111.53021 36209 ft 452 kts 239°
2026-04-29 11:01 37.40128 111.46462 36213 ft 452 kts 239°
2026-04-29 11:02 37.36628 111.39961 36214 ft 452 kts 239°
2026-04-29 11:02 37.33104 111.33432 36223 ft 450 kts 239°
2026-04-29 11:03 37.29587 111.26940 36226 ft 449 kts 239°
2026-04-29 11:03 37.26077 111.20472 36224 ft 448 kts 239°
2026-04-29 11:04 37.22595 111.14068 36225 ft 447 kts 239°
2026-04-29 11:04 37.19089 111.07622 36186 ft 447 kts 240°
2026-04-29 11:05 37.15583 111.01192 36220 ft 446 kts 240°
2026-04-29 11:05 37.12083 110.94796 36219 ft 444 kts 240°
2026-04-29 11:06 37.08615 110.88460 36217 ft 444 kts 240°
2026-04-29 11:06 37.05124 110.82095 36210 ft 443 kts 240°
2026-04-29 11:07 37.01629 110.75737 36188 ft 444 kts 239°
2026-04-29 11:07 36.98137 110.69373 36183 ft 444 kts 240°
2026-04-29 11:08 36.94734 110.62996 36194 ft 444 kts 240°
2026-04-29 11:08 36.91325 110.56555 36191 ft 444 kts 240°
2026-04-29 11:09 36.87903 110.50131 36188 ft 444 kts 240°
2026-04-29 11:09 36.84459 110.43716 36167 ft 444 kts 241°
2026-04-29 11:10 36.81034 110.37366 36177 ft 444 kts 241°
2026-04-29 11:10 36.77592 110.30988 36181 ft 443 kts 241°
2026-04-29 11:11 36.74157 110.24611 36186 ft 443 kts 241°
2026-04-29 11:11 36.70722 110.18248 36185 ft 442 kts 241°
2026-04-29 11:12 36.67302 110.11942 36157 ft 442 kts 241°
2026-04-29 11:12 36.63856 110.05611 36174 ft 441 kts 241°
2026-04-29 11:13 36.60420 109.99291 36180 ft 441 kts 241°
2026-04-29 11:13 36.56979 109.92976 36181 ft 441 kts 241°
2026-04-29 11:14 36.53538 109.86673 36182 ft 441 kts 241°
2026-04-29 11:14 36.50116 109.80416 36178 ft 440 kts 241°
2026-04-29 11:15 36.46675 109.74126 36179 ft 439 kts 242°
2026-04-29 11:15 36.43239 109.67858 36182 ft 439 kts 242°
2026-04-29 11:16 36.39792 109.61602 36197 ft 439 kts 242°
2026-04-29 11:16 36.36364 109.55395 36185 ft 439 kts 242°
2026-04-29 11:17 36.32915 109.49153 36203 ft 439 kts 242°
2026-04-29 11:17 36.29399 109.42967 36180 ft 442 kts 236°
2026-04-29 11:18 36.24647 109.37969 36194 ft 459 kts 216°
2026-04-29 11:18 36.18919 109.34463 36199 ft 463 kts 212°
2026-04-29 11:19 36.13117 109.31006 36194 ft 463 kts 212°
2026-04-29 11:19 36.07320 109.27542 36201 ft 462 kts 212°
2026-04-29 11:20 36.01546 109.24087 36208 ft 461 kts 212°
2026-04-29 11:20 35.95779 109.20646 36210 ft 460 kts 212°
2026-04-29 11:21 35.90058 109.17233 36190 ft 460 kts 212°
2026-04-29 11:21 35.84281 109.13853 36204 ft 462 kts 208°
2026-04-29 11:22 35.78216 109.11136 36194 ft 464 kts 206°
2026-04-29 11:22 35.72146 109.08436 36202 ft 463 kts 206°
2026-04-29 11:23 35.66122 109.05764 36195 ft 463 kts 206°
2026-04-29 11:23 35.60057 109.03074 36202 ft 463 kts 206°
2026-04-29 11:24 35.53994 109.00389 36213 ft 463 kts 206°
2026-04-29 11:24 35.47927 108.97708 36223 ft 464 kts 206°
2026-04-29 11:25 35.41902 108.95048 36215 ft 463 kts 206°
2026-04-29 11:25 35.35854 108.92376 36226 ft 462 kts 206°
2026-04-29 11:26 35.26794 108.88378 36232 ft 461 kts 206°
2026-04-29 11:26 35.20766 108.85729 36216 ft 460 kts 206°
2026-04-29 11:27 35.14768 108.83107 36231 ft 460 kts 206°
2026-04-29 11:27 35.08743 108.80474 36236 ft 459 kts 206°
2026-04-29 11:28 35.02730 108.77846 36228 ft 459 kts 206°
2026-04-29 11:28 34.96706 108.75221 36207 ft 460 kts 206°
2026-04-29 11:29 34.90677 108.72594 36204 ft 460 kts 206°
2026-04-29 11:29 34.84683 108.69978 36207 ft 461 kts 206°
2026-04-29 11:30 34.78640 108.67356 36168 ft 461 kts 206°
2026-04-29 11:30 34.72602 108.64737 36201 ft 460 kts 206°
2026-04-29 11:31 34.66574 108.62135 36205 ft 460 kts 206°
2026-04-29 11:31 34.60592 108.59546 36209 ft 459 kts 206°
2026-04-29 11:32 34.54571 108.56941 36189 ft 459 kts 206°
2026-04-29 11:32 34.48557 108.54345 36192 ft 459 kts 206°
2026-04-29 11:33 34.42545 108.51762 36195 ft 458 kts 206°
2026-04-29 11:33 34.36534 108.49181 36196 ft 458 kts 206°
2026-04-29 11:34 34.30568 108.46615 36180 ft 458 kts 206°
2026-04-29 11:34 34.24568 108.44050 36191 ft 457 kts 206°
2026-04-29 11:35 34.18571 108.41485 36178 ft 457 kts 206°
2026-04-29 11:35 34.12564 108.38917 36194 ft 458 kts 206°
2026-04-29 11:36 34.06596 108.36375 36178 ft 458 kts 206°
2026-04-29 11:36 34.00586 108.33821 36213 ft 458 kts 206°
2026-04-29 11:37 33.94580 108.31267 36232 ft 457 kts 207°
2026-04-29 11:37 33.88578 108.28717 36231 ft 458 kts 207°
2026-04-29 11:38 33.82615 108.26189 36239 ft 457 kts 207°
2026-04-29 11:38 33.76621 108.23648 36260 ft 456 kts 206°
2026-04-29 11:39 33.70635 108.21116 36262 ft 456 kts 206°
2026-04-29 11:39 33.64655 108.18591 36267 ft 455 kts 207°
2026-04-29 11:40 33.58714 108.16083 36254 ft 455 kts 207°
2026-04-29 11:40 33.52732 108.13575 36259 ft 455 kts 206°
2026-04-29 11:41 33.46762 108.11074 36252 ft 454 kts 207°
2026-04-29 11:41 33.41020 108.08126 36251 ft 442 kts 219°
2026-04-29 11:42 33.36270 108.03746 36230 ft 432 kts 227°
2026-04-29 11:42 33.31636 107.99172 36238 ft 431 kts 226°
2026-04-29 11:43 33.27006 107.94646 36213 ft 431 kts 226°
2026-04-29 11:43 33.22400 107.90131 36211 ft 431 kts 227°
2026-04-29 11:44 33.17784 107.85565 36203 ft 431 kts 227°
2026-04-29 11:44 33.13158 107.80997 36199 ft 430 kts 226°
2026-04-29 11:45 33.08545 107.76460 36215 ft 430 kts 226°
2026-04-29 11:45 33.03954 107.71956 36198 ft 431 kts 226°
2026-04-29 11:46 32.99321 107.67408 36199 ft 432 kts 226°
2026-04-29 11:46 32.94684 107.62863 36214 ft 432 kts 226°
2026-04-29 11:47 32.90040 107.58323 36199 ft 432 kts 226°
2026-04-29 11:47 32.85388 107.53784 36218 ft 432 kts 226°
2026-04-29 11:48 32.80922 107.49125 36226 ft 425 kts 235°
2026-04-29 11:48 32.77411 107.43577 36223 ft 419 kts 240°
2026-04-29 11:49 32.73986 107.37963 36226 ft 420 kts 240°
2026-04-29 11:49 32.70551 107.32353 36225 ft 420 kts 239°
2026-04-29 11:50 32.67137 107.26779 36227 ft 421 kts 240°
2026-04-29 11:50 32.63691 107.21159 36235 ft 421 kts 240°
2026-04-29 11:51 32.60241 107.15534 36240 ft 421 kts 240°
2026-04-29 11:51 32.56801 107.09929 36236 ft 420 kts 240°
2026-04-29 11:52 32.53374 107.04364 36233 ft 421 kts 240°
2026-04-29 11:52 32.49923 106.98768 36222 ft 420 kts 240°
2026-04-29 11:53 32.46475 106.93179 36241 ft 420 kts 240°
2026-04-29 11:53 32.43027 106.87605 36248 ft 419 kts 240°
2026-04-29 11:54 32.39598 106.82075 36251 ft 419 kts 241°
2026-04-29 11:54 32.36132 106.76494 36246 ft 418 kts 240°
2026-04-29 11:55 32.33015 106.70811 36237 ft 409 kts 251°
2026-04-29 11:55 32.31346 106.64471 36246 ft 403 kts 261°
2026-04-29 11:56 32.30204 106.59139 36240 ft 402 kts 260°
2026-04-29 11:56 32.28817 106.52749 36255 ft 401 kts 260°
2026-04-29 11:57 32.27205 106.45338 36254 ft 400 kts 260°
2026-04-29 11:57 32.25826 106.38983 36251 ft 399 kts 260°
2026-04-29 11:58 32.24449 106.32641 36237 ft 398 kts 260°
2026-04-29 11:58 32.23064 106.26301 36239 ft 399 kts 260°
2026-04-29 11:59 32.21681 106.20007 36241 ft 399 kts 260°
2026-04-29 11:59 32.19411 106.13970 36238 ft 410 kts 244°
2026-04-29 12:00 32.16865 106.09246 36242 ft 410 kts 244°
2026-04-29 12:00 32.13802 106.03568 36238 ft 410 kts 244°
2026-04-29 12:01 32.10252 105.96966 36206 ft 410 kts 244°
2026-04-29 12:01 32.07691 105.92210 36209 ft 410 kts 244°
2026-04-29 12:02 32.04134 105.85615 36219 ft 410 kts 243°
2026-04-29 12:02 32.01589 105.80909 36224 ft 410 kts 244°
2026-04-29 12:03 31.98521 105.75243 36227 ft 410 kts 244°
2026-04-29 12:03 31.95462 105.69588 36223 ft 410 kts 244°
2026-04-29 12:04 31.92390 105.63944 36220 ft 409 kts 244°
2026-04-29 12:04 31.89335 105.58331 36206 ft 410 kts 244°
2026-04-29 12:05 31.86261 105.52688 36229 ft 409 kts 245°
2026-04-29 12:05 31.83189 105.47046 36230 ft 410 kts 245°
2026-04-29 12:06 31.80115 105.41404 36227 ft 410 kts 245°
2026-04-29 12:06 31.77059 105.35806 36224 ft 409 kts 244°
2026-04-29 12:07 31.73458 105.29231 36226 ft 410 kts 244°
2026-04-29 12:07 31.70389 105.23641 36222 ft 410 kts 245°
2026-04-29 12:08 31.67804 105.18930 36208 ft 409 kts 245°
2026-04-29 12:08 31.64802 105.13311 36217 ft 409 kts 246°
2026-04-29 12:09 31.61814 105.07634 36221 ft 409 kts 246°
2026-04-29 12:09 31.58810 105.01965 36227 ft 409 kts 246°
2026-04-29 12:10 31.55825 104.96341 36220 ft 409 kts 246°
2026-04-29 12:10 31.52821 104.90688 36180 ft 409 kts 246°
2026-04-29 12:11 31.49807 104.85023 36189 ft 410 kts 246°
2026-04-29 12:11 31.46789 104.79357 36182 ft 410 kts 247°
2026-04-29 12:12 31.43814 104.73797 36207 ft 389 kts 248°
2026-04-29 12:12 31.42418 104.71207 36209 ft 374 kts 248°
2026-04-29 12:12 31.41054 104.68683 36211 ft 360 kts 248°
2026-04-29 12:13 31.38436 104.63753 36211 ft 355 kts 249°
2026-04-29 12:13 31.35886 104.58815 36211 ft 354 kts 249°
2026-04-29 12:14 31.33331 104.53885 36212 ft 355 kts 249°
2026-04-29 12:14 31.30774 104.48985 36211 ft 355 kts 249°
2026-04-29 12:15 31.28193 104.44070 36208 ft 355 kts 249°
2026-04-29 12:15 31.25607 104.39161 36178 ft 354 kts 250°
2026-04-29 12:16 31.23349 104.34139 35907 ft 350 kts 254°
2026-04-29 12:16 31.22276 104.31616 35216 ft 354 kts 253°
2026-04-29 12:16 31.21173 104.29023 34471 ft 360 kts 252°
2026-04-29 12:17 31.20042 104.26379 33659 ft 367 kts 252°
2026-04-29 12:17 31.18887 104.23683 32818 ft 374 kts 251°
2026-04-29 12:17 31.17715 104.20948 31962 ft 380 kts 250°
2026-04-29 12:17 31.16523 104.18174 31168 ft 385 kts 250°
2026-04-29 12:18 31.15311 104.15359 30279 ft 392 kts 249°
2026-04-29 12:18 31.14072 104.12485 29247 ft 400 kts 249°
2026-04-29 12:18 31.12811 104.09567 28313 ft 405 kts 248°
2026-04-29 12:18 31.11556 104.06658 27363 ft 410 kts 248°
2026-04-29 12:19 31.10264 104.03658 26268 ft 418 kts 248°
2026-04-29 12:19 31.08944 104.00595 25196 ft 426 kts 247°
2026-04-29 12:19 31.07603 103.97486 24154 ft 433 kts 247°
2026-04-29 12:19 31.06222 103.94341 23186 ft 437 kts 244°
2026-04-29 12:20 31.04549 103.91386 22434 ft 437 kts 236°
2026-04-29 12:20 31.02541 103.88741 21691 ft 436 kts 227°
2026-04-29 12:20 31.00225 103.86458 20948 ft 436 kts 219°
2026-04-29 12:20 30.97686 103.84608 20200 ft 437 kts 211°
2026-04-29 12:21 30.94905 103.83168 19303 ft 434 kts 205°
2026-04-29 12:21 30.91930 103.81926 16626 ft 481 kts 203°
2026-04-29 12:21 30.88953 103.80507 17148 ft 442 kts 204°
2026-04-29 12:21 30.86045 103.79675 17150 ft 424 kts 185°
2026-04-29 12:22 30.83167 103.79820 17151 ft 405 kts 176°
2026-04-29 12:22 30.80440 103.80213 17155 ft 386 kts 174°
2026-04-29 12:22 30.77834 103.80637 17071 ft 371 kts 174°
2026-04-29 12:22 30.75280 103.81061 16289 ft 376 kts 175°
2026-04-29 12:23 30.72681 103.81490 15893 ft 372 kts 174°
2026-04-29 12:23 30.70206 103.81947 15766 ft 360 kts 169°
2026-04-29 12:23 30.67995 103.83191 15647 ft 352 kts 141°
2026-04-29 12:23 30.66535 103.85406 15509 ft 344 kts 112°
2026-04-29 12:24 30.65925 103.88029 15389 ft 332 kts 103°
2026-04-29 12:24 30.65164 103.90504 15266 ft 320 kts 113°
2026-04-29 12:24 30.64683 103.92962 15143 ft 309 kts 86°
2026-04-29 12:24 30.65278 103.95241 15051 ft 288 kts 54°
2026-04-29 12:25 30.66627 103.96778 14939 ft 266 kts 32°
2026-04-29 12:25 30.68213 103.97712 14592 ft 251 kts 17°
2026-04-29 12:25 30.71575 103.97872 13503 ft 241 kts 341°
2026-04-29 12:26 30.73064 103.97047 12939 ft 235 kts 322°
2026-04-29 12:26 30.74222 103.95744 12392 ft 230 kts 304°
2026-04-29 12:26 30.74955 103.94127 11861 ft 225 kts 287°
2026-04-29 12:26 30.75227 103.92359 11351 ft 221 kts 270°
2026-04-29 12:27 30.75043 103.90605 10835 ft 218 kts 256°
2026-04-29 12:27 30.74940 103.88894 10336 ft 218 kts 283°
2026-04-29 12:27 30.75805 103.87493 9851 ft 220 kts 324°
2026-04-29 12:27 30.77286 103.87135 9307 ft 225 kts
2026-04-29 12:28 30.78676 103.87990 8504 ft 237 kts 43°
2026-04-29 12:28 30.79822 103.89404 7714 ft 242 kts 45°
2026-04-29 12:28 30.80967 103.90833 7060 ft 240 kts 46°
2026-04-29 12:28 30.82098 103.92243 6438 ft 236 kts 46°
2026-04-29 12:29 30.83179 103.93593 6177 ft 217 kts 46°
2026-04-29 12:29 30.84277 103.94620 6045 ft 197 kts 26°
2026-04-29 12:29 30.85501 103.95177 5906 ft 182 kts 21°
2026-04-29 12:29 30.86641 103.95706 5785 ft 171 kts 21°
2026-04-29 12:30 30.87721 103.96218 5673 ft 165 kts 22°
2026-04-29 12:30 30.88778 103.96721 5552 ft 162 kts 22°
2026-04-29 12:30 30.89785 103.97198 5430 ft 155 kts 22°
2026-04-29 12:30 30.90819 103.97685 5275 ft 163 kts 22°
2026-04-29 12:31 30.91875 103.98182 5163 ft 164 kts 22°
2026-04-29 12:31 30.92936 103.98680 5030 ft 164 kts 23°
2026-04-29 12:31 30.94007 103.99184 4919 ft 183 kts 23°
2026-04-29 12:31 30.95276 103.99784 4815 ft 205 kts 23°
2026-04-29 12:32 30.96610 104.00413 4684 ft 208 kts 23°
2026-04-29 12:32 30.97929 104.01031 4570 ft 196 kts 24°
2026-04-29 12:32 30.99004 104.01872 4425 ft 180 kts 52°
2026-04-29 12:32 30.99522 104.03110 4293 ft 166 kts 81°
2026-04-29 12:33 30.99472 104.04413 4166 ft 160 kts 108°
2026-04-29 12:33 30.99066 104.05601 4049 ft 158 kts 114°
2026-04-29 12:33 30.98657 104.06763 3930 ft 156 kts 114°
2026-04-29 12:33 30.98255 104.07910 3871 ft 148 kts 113°
2026-04-29 12:34 30.97872 104.09002 3935 ft 144 kts 113°
2026-04-29 12:34 30.97493 104.10081 3938 ft 144 kts 113°
2026-04-29 12:34 30.97043 104.11111 3934 ft 142 kts 129°
2026-04-29 12:34 30.96273 104.11821 3938 ft 142 kts 155°
2026-04-29 12:35 30.95309 104.12053 3942 ft 143 kts 180°
2026-04-29 12:35 30.94347 104.11768 3946 ft 144 kts 200°
2026-04-29 12:35 30.93418 104.11333 3945 ft 144 kts 199°
2026-04-29 12:35 30.92492 104.10899 3926 ft 141 kts 200°
2026-04-29 12:36 30.91599 104.10480 3584 ft 141 kts 200°
2026-04-29 12:36 30.90686 104.10052 3219 ft 141 kts 199°
2026-04-29 12:36 30.89774 104.09624 2869 ft 141 kts 199°
2026-04-29 12:36 30.88867 104.09199 2545 ft 140 kts 199°
2026-04-29 12:37 30.87968 104.08777 2375 ft 141 kts 199°
2026-04-29 12:37 30.87044 104.08343 2689 ft 142 kts 199°
2026-04-29 12:37 30.86134 104.07917 3096 ft 140 kts 199°
2026-04-29 12:37 30.85228 104.07492 3482 ft 141 kts 199°
2026-04-29 12:38 30.84324 104.07069 3806 ft 143 kts 200°
2026-04-29 12:38 30.83389 104.06631 3886 ft 145 kts 200°
2026-04-29 12:38 30.82458 104.06195 3899 ft 144 kts 199°
2026-04-29 12:38 30.81530 104.05760 3900 ft 143 kts 200°
2026-04-29 12:39 30.80604 104.05326 3898 ft 144 kts 200°
2026-04-29 12:39 30.79675 104.04892 3900 ft 144 kts 199°
2026-04-29 12:39 30.78747 104.04457 3903 ft 144 kts 200°
2026-04-29 12:39 30.77817 104.04022 3903 ft 144 kts 200°
2026-04-29 12:40 30.76900 104.03593 3903 ft 145 kts 200°
2026-04-29 12:40 30.75966 104.03156 3903 ft 145 kts 200°
2026-04-29 12:40 30.75035 104.02721 3907 ft 145 kts 199°
2026-04-29 12:40 30.74097 104.02282 3907 ft 145 kts 200°
2026-04-29 12:41 30.73159 104.01844 3907 ft 145 kts 199°
2026-04-29 12:41 30.72219 104.01405 3907 ft 145 kts 199°
2026-04-29 12:41 30.71283 104.00967 3907 ft 145 kts 199°
2026-04-29 12:41 30.70345 104.00529 3847 ft 145 kts 199°
2026-04-29 12:42 30.69413 104.00093 3708 ft 144 kts 199°
2026-04-29 12:42 30.68498 103.99666 3539 ft 144 kts 198°
2026-04-29 12:42 30.67574 103.99234 3368 ft 143 kts 199°
2026-04-29 12:42 30.66655 103.98806 3179 ft 142 kts 199°
2026-04-29 12:43 30.65739 103.98378 2988 ft 142 kts 199°
2026-04-29 12:43 30.64818 103.97949 2797 ft 143 kts 199°
2026-04-29 12:43 30.63897 103.97519 2618 ft 143 kts 198°
2026-04-29 12:43 30.62977 103.97090 2430 ft 143 kts 199°
2026-04-29 12:44 30.62056 103.96661 2239 ft 142 kts 199°
2026-04-29 12:44 30.61139 103.96232 2049 ft 143 kts 200°
2026-04-29 12:44 30.60227 103.95817 1839 ft 142 kts 199°
2026-04-29 12:44 30.59328 103.95398 1705 ft 138 kts 199°
2026-04-29 12:45 30.58484 103.95028 1646 ft 109 kts 204°
2026-04-29 12:45 30.58160 103.94857 1647 ft 27 kts 202°
2026-04-29 12:45 30.57982 103.94772 1648 ft 32 kts 201°
2026-04-29 12:45 30.57754 103.94652 1648 ft 40 kts 203°
2026-04-29 12:46 30.57505 103.94606 1646 ft 24 kts 176°
2026-04-29 12:46 30.57417 103.94617 1647 ft 0 kts 171°
2026-04-29 12:46 30.57415 103.94617 1647 ft 1 kts 171°
2026-04-29 12:47 30.57381 103.94626 1647 ft 9 kts 161°
2026-04-29 12:47 30.57323 103.94694 1647 ft 7 kts 116°
2026-04-29 12:47 30.57297 103.94763 1647 ft 12 kts 110°
2026-04-29 12:47 30.57292 103.94783 1647 ft 0 kts 104°
2026-04-29 12:48 30.57291 103.94790 1647 ft 2 kts 101°
2026-04-29 12:48 30.57298 103.94829 1647 ft 8 kts 59°
2026-04-29 12:49 30.57361 103.94870 1647 ft 13 kts 22°
2026-04-29 12:49 30.57425 103.94901 1647 ft 7 kts 22°
2026-04-29 12:49 30.57475 103.94946 1647 ft 12 kts 63°
2026-04-29 12:49 30.57475 103.94978 1647 ft 3 kts 114°
2026-04-29 12:50 30.57455 103.95001 1647 ft 4 kts 143°
2026-04-29 12:50 30.57447 103.95007 1647 ft 0 kts 149°
2026-04-29 12:51 30.57440 103.95011 1647 ft 5 kts 150°
2026-04-29 12:51 30.57420 103.95023 1647 ft 2 kts 156°
2026-04-29 12:52 30.57402 103.95032 1647 ft 3 kts 157°
2026-04-29 12:52 30.57389 103.95038 1647 ft 0 kts 157°
2026-04-29 12:52 30.57386 103.95040 1647 ft 0 kts 157°